Location: Unspecified
(0.0000°N, 0.0000°E)
Time: 20:21:31
(UTC+02:00)

Palapa 6 Rocket - Visible Passes

Search period start: 24 April 2018 00:00
Search period end: 04 May 2018 00:00
Orbit: 485 x 1219 km, 22.7° (Epoch: 23 April)

Date Brightness Start Highest point End Pass type
(mag) Time Alt. Az. Time Alt. Az. Time Alt. Az.
24 Apr 4.5 07:00:53 10° NW 07:05:19 42° NNE 07:10:45 10° E visible
24 Apr 5.2 21:39:55 10° W 21:44:37 25° NNW 21:46:59 18° NNE visible
25 Apr 4.1 06:47:15 14° NW 06:50:54 48° NNE 06:56:11 10° E visible
25 Apr 5.5 21:25:27 10° WNW 21:30:11 23° NNW 21:34:05 11° NNE visible
26 Apr 3.6 06:34:23 27° NW 06:36:32 55° NNE 06:41:38 10° ESE visible
26 Apr 5.8 21:10:59 10° WNW 21:15:45 22° NNW 21:19:52 10° NNE visible
27 Apr 3.2 06:21:30 55° NNW 06:22:11 65° NNE 06:27:05 10° ESE visible
27 Apr 5.9 20:56:31 10° WNW 21:01:18 21° NNW 21:05:28 10° NNE visible
28 Apr 3.4 06:08:39 58° E 06:08:39 58° E 06:12:33 10° ESE visible
28 Apr 6.0 20:42:03 10° WNW 20:46:50 20° NNW 20:51:03 10° NNE visible
29 Apr 4.6 05:55:46 28° ESE 05:55:46 28° ESE 05:58:01 10° ESE visible
29 Apr 6.1 20:27:36 10° WNW 20:32:21 19° NNW 20:36:36 10° NNE visible
30 Apr 5.6 05:42:51 14° ESE 05:42:51 14° ESE 05:43:30 10° ESE visible
30 Apr 4.8 07:25:01 10° WSW 07:28:00 18° SSW 07:31:22 10° SSE visible
30 Apr 6.2 20:13:10 10° WNW 20:17:53 18° NNW 20:22:08 10° NNE visible
01 May 4.8 07:11:50 12° SW 07:13:45 15° SSW 07:16:22 10° SSE visible
02 May 4.9 06:58:50 12° SSW 06:59:30 12° SSW 07:01:10 10° S visible
